DW8284 Weather Reports


Display with metric or nautical units.
time (UTC)temp
F
wind
direction
speed
MPH
gust
MPH
rain 1hr
in
rain 24hr
in
rain mn
in
humidity
%
barometer
mb
20260504050540 57 0 0.0 2.0 0.00 0.00 0.00 74 1007.5
20260504045542 57 0 0.0 1.0 0.00 0.00 0.00 75 1007.6
20260504045039 57 178 0.0 1.0 0.00 0.00 0.00 74 1007.7
20260504044600 57 0 0.0 1.0 0.00 0.00 0.00 74 1007.8
20260504044041 57 0 0.0 2.0 0.00 0.00 0.00 74 1007.8
20260504043539 57 0 0.0 2.0 0.00 0.00 0.00 73 1007.7
20260504043053 58 0 0.0 2.0 0.00 0.00 0.00 72 1007.8
20260504042539 58 0 0.0 1.0 0.00 0.00 0.00 73 1007.9
20260504042038 58 0 0.0 1.0 0.00 0.00 0.00 72 1007.9
20260504041549 58 0 0.0 2.0 0.00 0.00 0.00 72 1007.8
20260504041039 58 0 0.0 2.0 0.00 0.00 0.00 72 1007.9
20260504040538 58 0 0.0 2.0 0.00 0.00 0.00 72 1007.8
20260504040103 59 0 0.0 2.0 0.00 0.00 0.00 70 1007.9
20260504035540 59 178 0.0 2.0 0.00 0.00 0.00 70 1007.8
20260504035039 59 0 0.0 1.0 0.00 0.00 0.00 70 1007.9
20260504034553 59 0 0.0 1.0 0.00 0.00 0.00 70 1007.9
20260504034040 59 0 0.0 2.0 0.00 0.00 0.00 71 1008.0
20260504033538 59 0 0.0 2.0 0.00 0.00 0.00 70 1008.0
20260504033056 60 178 0.0 2.0 0.00 0.00 0.00 71 1008.2
20260504032538 60 0 0.0 2.0 0.00 0.00 0.00 71 1008.1
20260504032039 60 0 0.0 2.0 0.00 0.00 0.00 70 1008.2
20260504031553 60 0 0.0 2.0 0.00 0.00 0.00 70 1008.1
20260504031038 60 0 0.0 2.0 0.00 0.00 0.00 70 1008.1
20260504030540 60 0 0.0 2.0 0.00 0.00 0.00 69 1008.2
20260504030047 61 0 0.0 2.0 0.00 0.00 0.00 69 1008.2
20260504025538 61 178 0.0 2.0 0.00 0.00 0.00 68 1008.0
20260504025039 61 178 0.0 2.0 0.00 0.00 0.00 67 1008.1
20260504024548 61 0 0.0 2.0 0.00 0.00 0.00 67 1008.1
20260504024038 61 0 0.0 2.0 0.00 0.00 0.00 67 1008.1
20260504023540 61 178 0.0 2.0 0.00 0.00 0.00 67 1008.1
20260504023047 61 0 0.0 2.0 0.00 0.00 0.00 67 1008.0
20260504022540 61 0 0.0 2.0 0.00 0.00 0.00 67 1008.0
20260504022039 61 0 0.0 2.0 0.00 0.00 0.00 67 1008.0
20260504021547 61 0 0.0 2.0 0.00 0.00 0.00 67 1008.0
20260504021044 61 0 0.0 2.0 0.00 0.00 0.00 67 1008.0
20260504020541 61 0 0.0 1.0 0.00 0.00 0.00 67 1008.0
20260504020047 61 0 0.0 1.0 0.00 0.00 0.00 67 1008.0
20260504015539 61 0 0.0 1.0 0.00 0.00 0.00 66 1008.0
20260504015042 62 0 0.0 1.0 0.00 0.00 0.00 65 1008.0
20260504014555 62 0 0.0 2.0 0.00 0.00 0.00 65 1008.0
20260504014037 62 0 0.0 2.0 0.00 0.00 0.00 65 1007.9
20260504013538 62 0 0.0 2.0 0.00 0.00 0.00 65 1007.9
20260504013051 62 0 0.0 2.0 0.00 0.00 0.00 64 1007.9
20260504012544 63 0 0.0 2.0 0.00 0.00 0.00 64 1007.8
20260504012040 63 0 0.0 2.0 0.00 0.00 0.00 64 1007.8
20260504011551 63 238 0.0 1.0 0.00 0.00 0.00 62 1007.8
20260504011037 63 0 0.0 1.0 0.00 0.00 0.00 62 1007.8
20260504010539 64 0 0.0 1.0 0.00 0.00 0.00 62 1007.6
20260504010057 64 0 0.0 2.0 0.00 0.00 0.00 62 1007.7
20260504005541 64 0 0.0 2.0 0.00 0.00 0.00 62 1007.7
20260504005039 65 0 0.0 2.0 0.00 0.00 0.00 61 1007.7
20260504004548 65 0 0.0 1.0 0.00 0.00 0.00 60 1007.7
20260504004040 65 0 0.0 2.0 0.00 0.00 0.00 60 1007.8
20260504003540 65 0 0.0 2.0 0.00 0.00 0.00 60 1007.7
20260504003046 66 0 0.0 2.0 0.00 0.00 0.00 59 1007.7
20260504002540 66 0 0.0 2.0 0.00 0.00 0.00 58 1007.7
20260504002038 66 158 0.0 2.0 0.00 0.00 0.00 58 1007.7
20260504001609 66 247 0.0 2.0 0.00 0.00 0.00 59 1007.8
20260504001040 66 178 0.0 2.0 0.00 0.00 0.00 58 1007.7
20260504000540 66 205 0.0 2.0 0.00 0.00 0.00 58 1007.7
20260504000052 67 0 0.0 2.0 0.00 0.00 0.00 57 1007.7
20260503235540 67 51 0.0 2.0 0.00 0.00 0.00 56 1007.8
20260503235039 67 158 0.0 2.0 0.00 0.00 0.00 56 1007.8
20260503234555 67 190 0.0 2.0 0.00 0.00 0.00 57 1007.7
20260503234041 67 196 0.0 2.0 0.00 0.00 0.00 57 1007.8
20260503233538 67 0 0.0 2.0 0.00 0.00 0.00 56 1007.9
20260503233046 67 178 0.0 3.0 0.00 0.00 0.00 56 1007.8
20260503232542 67 0 0.0 3.0 0.00 0.00 0.00 55 1007.8
20260503232038 67 178 0.0 3.0 0.00 0.00 0.00 55 1007.9
20260503231549 67 239 0.0 3.0 0.00 0.00 0.00 55 1007.9
20260503231043 67 168 0.0 3.0 0.00 0.00 0.00 55 1007.9
20260503230540 67 0 0.0 3.0 0.00 0.00 0.00 54 1007.9
20260503230048 67 0 0.0 3.0 0.00 0.00 0.00 55 1008.0
20260503225540 67 0 0.0 3.0 0.00 0.00 0.00 55 1008.0
20260503225039 67 0 0.0 4.0 0.00 0.00 0.00 53 1008.0
20260503224551 67 250 0.0 4.0 0.00 0.00 0.00 53 1008.0
20260503224039 67 178 0.0 2.0 0.00 0.00 0.00 53 1008.1
20260503223542 67 162 0.0 2.0 0.00 0.00 0.00 54 1008.2
20260503223052 67 153 0.0 2.0 0.00 0.00 0.00 55 1008.1
20260503222539 67 0 0.0 2.0 0.00 0.00 0.00 52 1008.2
20260503222038 67 170 0.0 4.0 0.00 0.00 0.00 53 1008.4
20260503221551 67 0 0.0 4.0 0.00 0.00 0.00 52 1008.4
20260503221041 67 340 0.0 4.0 0.00 0.00 0.00 51 1008.4
20260503220539 67 0 1.0 3.0 0.00 0.00 0.00 51 1008.5
20260503220109 67 0 0.0 3.0 0.00 0.00 0.00 51 1008.4
20260503215538 67 0 0.0 4.0 0.00 0.00 0.00 51 1008.5
20260503215039 67 178 1.0 6.0 0.00 0.00 0.00 50 1008.5
20260503214552 67 271 0.0 6.0 0.00 0.00 0.00 51 1008.4
20260503214041 67 178 1.0 6.0 0.00 0.00 0.00 50 1008.5
20260503213539 67 205 1.0 7.0 0.00 0.00 0.00 51 1008.5
20260503213049 67 178 1.0 7.0 0.00 0.00 0.00 51 1008.4
20260503212539 67 239 1.0 7.0 0.00 0.00 0.00 54 1008.5
20260503212041 67 265 1.0 5.0 0.00 0.00 0.00 50 1008.5
20260503211605 67 178 1.0 4.0 0.00 0.00 0.00 50 1008.5
20260503211042 67 243 0.0 6.0 0.00 0.00 0.00 50 1008.4
20260503210539 67 178 1.0 7.0 0.00 0.00 0.00 50 1008.5
20260503210057 67 165 1.0 8.0 0.00 0.00 0.00 49 1008.6
20260503205538 68 265 1.0 8.0 0.00 0.00 0.00 49 1008.7
20260503205040 68 188 1.0 5.0 0.00 0.00 0.00 49 1008.8
20260503204555 67 178 1.0 5.0 0.00 0.00 0.00 51 1008.6
20260503204037 66 0 1.0 5.0 0.00 0.00 0.00 50 1008.7
20260503203539 66 178 1.0 7.0 0.00 0.00 0.00 50 1008.7
20260503203056 66 0 1.0 7.0 0.00 0.00 0.00 50 1008.9
20260503202539 66 296 1.0 6.0 0.00 0.00 0.00 50 1009.2
20260503202039 66 0 1.0 6.0 0.00 0.00 0.00 49 1009.2
20260503201550 66 178 2.0 8.0 0.00 0.00 0.00 48 1009.2
20260503201039 67 221 1.0 9.0 0.00 0.00 0.00 48 1009.4
20260503200540 68 193 2.0 9.0 0.00 0.00 0.00 47 1009.4
20260503200049 68 0 1.0 10.0 0.00 0.00 0.00 47 1009.4
20260503195539 68 0 1.0 11.0 0.00 0.00 0.00 46 1009.5
20260503195038 68 175 2.0 11.0 0.00 0.00 0.00 45 1009.8
20260503194554 68 175 2.0 9.0 0.00 0.00 0.00 45 1009.6
20260503194040 68 178 2.0 9.0 0.00 0.00 0.00 45 1009.3
20260503193540 68 173 2.0 9.0 0.00 0.00 0.00 44 1009.5
20260503193102 68 221 2.0 9.0 0.00 0.00 0.00 46 1009.6
20260503192538 67 265 2.0 7.0 0.00 0.00 0.00 47 1009.8
20260503192043 67 84 2.0 7.0 0.00 0.00 0.00 45 1009.4
20260503191555 67 178 1.0 8.0 0.00 0.00 0.00 46 1009.8
20260503191039 67 178 2.0 8.0 0.00 0.00 0.00 45 1010.0
20260503190540 67 200 2.0 7.0 0.00 0.00 0.00 44 1010.0
20260503190048 67 178 1.0 7.0 0.00 0.00 0.00 47 1009.9
20260503185537 66 162 1.0 7.0 0.00 0.00 0.00 47 1010.0
20260503185038 65 146 1.0 7.0 0.00 0.00 0.00 50 1010.0
20260503184549 65 170 2.0 9.0 0.00 0.00 0.00 47 1010.1
20260503184038 65 221 2.0 9.0 0.00 0.00 0.00 46 1010.1
20260503183537 65 171 1.0 8.0 0.00 0.00 0.00 48 1010.2
20260503183050 64 221 2.0 8.0 0.00 0.00 0.00 49 1010.3
20260503182540 64 183 2.0 7.0 0.00 0.00 0.00 51 1010.4
20260503182043 64 178 2.0 7.0 0.00 0.00 0.00 52 1010.7
20260503181618 63 246 1.0 7.0 0.00 0.00 0.00 53 1010.7
20260503181039 62 165 1.0 8.0 0.00 0.00 0.00 53 1010.8
20260503180539 62 178 2.0 8.0 0.00 0.00 0.00 52 1010.7
20260503180109 62 144 1.0 7.0 0.00 0.00 0.00 52 1011.0
20260503175539 61 178 1.0 6.0 0.00 0.00 0.00 55 1011.4
20260503175039 61 178 2.0 8.0 0.00 0.00 0.00 52 1011.6
20260503174554 61 173 2.0 8.0 0.00 0.00 0.00 53 1011.8
20260503174038 61 175 2.0 8.0 0.00 0.00 0.00 51 1012.1
20260503173538 61 178 1.0 7.0 0.00 0.00 0.00 52 1012.5
20260503173058 61 238 1.0 7.0 0.00 0.00 0.00 53 1012.6
20260503172537 61 0 1.0 7.0 0.00 0.00 0.00 55 1012.6
20260503172042 60 0 1.0 7.0 0.00 0.00 0.00 56 1012.8
20260503171549 60 178 1.0 5.0 0.00 0.00 0.00 56 1012.8
20260503171039 59 196 1.0 6.0 0.00 0.00 0.00 55 1013.3
20260503170540 59 178 1.0 6.0 0.00 0.00 0.00 54 1013.4
20260503150539 55 178 1.0 4.0 0.00 0.00 0.00 65 1015.1
20260503131039 48 178 0.0 4.0 0.00 0.00 0.00 76 1016.3
20260503130538 48 0 1.0 4.0 0.00 0.00 0.00 76 1016.6
20260503110542 43 196 0.0 3.0 0.00 0.00 0.00 81 1016.1
20260503081555 42 178 0.0 2.0 0.00 0.00 0.00 75 1016.7
20260503081039 42 196 0.0 2.0 0.00 0.00 0.00 74 1016.7
20260503080541 42 196 0.0 2.0 0.00 0.00 0.00 74 1016.8
20260503072542 43 0 0.0 2.0 0.00 0.00 0.00 71 1016.8
20260503072039 43 0 0.0 2.0 0.00 0.00 0.00 71 1016.9
20260503071556 43 0 0.0 2.0 0.00 0.00 0.00 71 1017.0
20260503071040 43 178 0.0 2.0 0.00 0.00 0.00 71 1016.9
20260503070539 43 0 0.0 2.0 0.00 0.00 0.00 71 1016.9